DIWATA-2B

Last updated on Tue Jan 14 2025 00:03:00 GMT+0000 (Coordinated Universal Time)

1 43678U 18084H 25013.54420635 .00002831 00000+0 25077-3 0 9996 2 43678 98.0879 184.2808 0009872 60.3979 299.8224 14.97077946338376
UTC large
Height (km)
Speed (km/s)
/
Latitude / Longitude
Inclination (degrees)
Orbital Period (minutes)
Azimuth
Elevation
Range (km)
Doppler Factor

Next 0 passes for location: London (51.5072 / 0.1276)

Sorry there are no passes over London.